SES-8

Last updated on Wed Sep 09 2026 00:03:00 GMT+0000 (Coordinated Universal Time)

1 39460U 13071A 26251.46388657 -.00000291 00000+0 00000+0 0 9998 2 39460 0.0597 272.2961 0002011 239.5528 97.6764 1.00271935 45266
UTC large
Height (km)
Speed (km/s)
/
Latitude / Longitude
Inclination (degrees)
Orbital Period (minutes)
Azimuth
Elevation
Range (km)
Doppler Factor

Next 0 passes for location: London (51.5072 / 0.1276)

No passes found over London.
SES-8